Location: Bratislava
(48.1500°N, 17.1170°E)
Time: 10:07:27
(UTC+02:00)

N. Korean satellite - Pass Details

Date: 30 January 2019
Orbit: 457 x 508 km, 97.2° (Epoch: 21 April)

Event Time Altitude Azimuth Distance (km) Brightness Sun altitude
Rises 04:53:56 0° 33° (NNE) 2,599 10.7 -24.9°
Reaches altitude 10° 04:57:30 10° 70° (ENE) 1,694 10.2 -24.3°
Maximum altitude 04:58:36 11° 88° (E) 1,620 10.3 -24.1°
Drops below altitude 10° 04:59:41 10° 105° (ESE) 1,680 10.3 -23.9°
Sets 05:03:10 0° 143° (SE) 2,537 10.8 -23.3°
